RSJ9672 UNOO-UUDL

Flight info

Callsign RSJ9672
Flight time N/A
Altitude 38000
Route BUNET B236 LUKAS M864 KERUN P164 ROKUR T784 OLATU T747 POGAS
Aircraft B738/M-SDE2E3FGHIRWXY/LB1

Departure

Time 2026-05-06 14:59
Airport Omsk Central Airport (UNOO)

Arrival

Time N/A
Airport Golden Ring Yaroslavl International Airport (UUDL)
Time Latitude Longitude Altitude Speed Heading
2026-05-06 14:28 54.95997 73.31507 297 ft 0 kts 165°
2026-05-06 14:52 54.95992 73.31509 297 ft 2 kts 165°
2026-05-06 14:52 54.95979 73.31538 299 ft 4 kts 102°
2026-05-06 14:53 54.95995 73.31600 298 ft 8 kts 45°
2026-05-06 14:53 54.96046 73.31691 297 ft 13 kts 46°
2026-05-06 14:53 54.96120 73.31825 297 ft 17 kts 46°
2026-05-06 14:53 54.96209 73.31985 299 ft 19 kts 45°
2026-05-06 14:54 54.96275 73.32096 299 ft 0 kts 36°
2026-05-06 14:54 54.96285 73.32109 298 ft 3 kts 36°
2026-05-06 14:54 54.96315 73.32146 298 ft 9 kts 37°
2026-05-06 14:54 54.96388 73.32232 300 ft 15 kts 18°
2026-05-06 14:55 54.96469 73.32291 300 ft 13 kts 63°
2026-05-06 14:55 54.96491 73.32443 300 ft 14 kts 77°
2026-05-06 14:55 54.96515 73.32620 297 ft 16 kts 77°
2026-05-06 14:55 54.96542 73.32828 298 ft 19 kts 77°
2026-05-06 14:56 54.96569 73.33016 298 ft 11 kts 63°
2026-05-06 14:56 54.96636 73.33042 301 ft 10 kts 346°
2026-05-06 14:56 54.96705 73.33013 300 ft 10 kts 346°
2026-05-06 14:56 54.96773 73.32987 299 ft 10 kts 347°
2026-05-06 14:57 54.96839 73.32960 298 ft 10 kts 346°
2026-05-06 14:57 54.96903 73.32934 297 ft 9 kts 346°
2026-05-06 14:57 54.96959 73.32899 300 ft 4 kts 314°
2026-05-06 14:57 54.96958 73.32849 300 ft 4 kts 249°
2026-05-06 14:58 54.96951 73.32808 301 ft 0 kts 259°
2026-05-06 14:58 54.96936 73.32686 306 ft 39 kts 257°
2026-05-06 14:58 54.96815 73.31783 306 ft 113 kts 257°
2026-05-06 14:58 54.96592 73.30089 357 ft 168 kts 258°
2026-05-06 14:59 54.96337 73.28111 1179 ft 167 kts 258°
2026-05-06 14:59 54.96075 73.26159 2056 ft 166 kts 257°
2026-05-06 14:59 54.95787 73.24063 2530 ft 195 kts 257°
2026-05-06 14:59 54.95462 73.21671 2951 ft 214 kts 258°
2026-05-06 15:00 54.95106 73.19028 3315 ft 233 kts 258°
2026-05-06 15:00 54.94717 73.16131 3678 ft 255 kts 258°
2026-05-06 15:00 54.94305 73.13087 4511 ft 260 kts 258°
2026-05-06 15:00 54.93885 73.10000 5450 ft 262 kts 259°
2026-05-06 15:01 54.93568 73.06867 6342 ft 263 kts 276°
2026-05-06 15:01 54.94128 73.03914 7142 ft 261 kts 303°
2026-05-06 15:01 54.95098 73.01227 7902 ft 267 kts 303°
2026-05-06 15:01 54.96114 72.98439 8680 ft 274 kts 303°
2026-05-06 15:02 54.97131 72.95639 9468 ft 279 kts 303°
2026-05-06 15:02 54.98184 72.92726 10231 ft 285 kts 303°
2026-05-06 15:02 54.99265 72.89719 10532 ft 308 kts 302°
2026-05-06 15:02 55.00445 72.86417 10731 ft 332 kts 302°
2026-05-06 15:03 55.01691 72.82912 11200 ft 344 kts 302°
2026-05-06 15:03 55.02961 72.79325 11933 ft 348 kts 301°
2026-05-06 15:03 55.04218 72.75763 12701 ft 351 kts 301°
2026-05-06 15:03 55.05509 72.72096 13449 ft 355 kts 301°
2026-05-06 15:04 55.06797 72.68428 14143 ft 359 kts 301°
2026-05-06 15:04 55.08107 72.64692 14843 ft 361 kts 301°
2026-05-06 15:04 55.09422 72.60935 15541 ft 364 kts 301°
2026-05-06 15:04 55.10744 72.57152 16236 ft 366 kts 301°
2026-05-06 15:05 55.12078 72.53328 16914 ft 369 kts 301°
2026-05-06 15:05 55.13425 72.49461 17582 ft 373 kts 301°
2026-05-06 15:05 55.14765 72.45606 18240 ft 376 kts 301°
2026-05-06 15:05 55.16130 72.41675 18806 ft 379 kts 301°
2026-05-06 15:06 55.17508 72.37699 19341 ft 383 kts 301°
2026-05-06 15:06 55.18898 72.33683 19886 ft 387 kts 301°
2026-05-06 15:06 55.20284 72.29674 20406 ft 391 kts 301°
2026-05-06 15:06 55.21697 72.25577 20937 ft 394 kts 301°
2026-05-06 15:07 55.23122 72.21437 21451 ft 398 kts 301°
2026-05-06 15:07 55.24544 72.17301 21966 ft 401 kts 301°
2026-05-06 15:07 55.25989 72.13091 22479 ft 404 kts 301°
2026-05-06 15:07 55.27451 72.08823 22972 ft 408 kts 301°
2026-05-06 15:08 55.28920 72.04527 23460 ft 411 kts 301°
2026-05-06 15:08 55.30398 72.00200 23884 ft 414 kts 301°
2026-05-06 15:08 55.31860 71.95907 24312 ft 416 kts 301°
2026-05-06 15:08 55.33351 71.91526 24756 ft 418 kts 301°
2026-05-06 15:09 55.34845 71.87123 25178 ft 419 kts 301°
2026-05-06 15:09 55.36347 71.82694 25585 ft 422 kts 301°
2026-05-06 15:09 55.37851 71.78247 25969 ft 424 kts 301°
2026-05-06 15:09 55.39363 71.73768 26354 ft 426 kts 301°
2026-05-06 15:10 55.40861 71.69325 26732 ft 428 kts 300°
2026-05-06 15:10 55.42385 71.64796 27116 ft 430 kts 300°
2026-05-06 15:10 55.43916 71.60237 27481 ft 433 kts 300°
2026-05-06 15:10 55.45454 71.55648 27833 ft 435 kts 300°
2026-05-06 15:11 55.46997 71.51035 28184 ft 437 kts 300°
2026-05-06 15:11 55.48543 71.46403 28529 ft 439 kts 300°
2026-05-06 15:11 55.50096 71.41746 28864 ft 441 kts 300°
2026-05-06 15:11 55.51636 71.37116 29182 ft 443 kts 300°
2026-05-06 15:12 55.53198 71.32410 29494 ft 445 kts 300°
2026-05-06 15:12 55.54765 71.27680 29801 ft 447 kts 300°
2026-05-06 15:12 55.56331 71.22943 30165 ft 446 kts 300°
2026-05-06 15:12 55.57894 71.18208 30579 ft 444 kts 300°
2026-05-06 15:13 55.59425 71.13559 31016 ft 441 kts 300°
2026-05-06 15:13 55.60966 71.08871 31407 ft 439 kts 300°
2026-05-06 15:13 55.62504 71.04185 31746 ft 438 kts 300°
2026-05-06 15:13 55.64034 70.99513 32103 ft 437 kts 299°
2026-05-06 15:14 55.65559 70.94846 32461 ft 436 kts 299°
2026-05-06 15:14 55.67056 70.90257 32815 ft 435 kts 299°
2026-05-06 15:14 55.68574 70.85595 33178 ft 433 kts 299°
2026-05-06 15:14 55.70075 70.80977 33524 ft 432 kts 299°
2026-05-06 15:15 55.71576 70.76348 33845 ft 431 kts 299°
2026-05-06 15:15 55.73066 70.71745 34138 ft 431 kts 299°
2026-05-06 15:15 55.74556 70.67134 34419 ft 429 kts 298°
2026-05-06 15:15 55.75866 70.62465 34669 ft 428 kts 290°
2026-05-06 15:16 55.76807 70.57441 34919 ft 427 kts 287°
2026-05-06 15:16 55.77679 70.52414 35177 ft 426 kts 286°
2026-05-06 15:16 55.78538 70.47384 35434 ft 425 kts 286°
2026-05-06 15:16 55.79396 70.42365 35692 ft 424 kts 286°
2026-05-06 15:17 55.80258 70.37363 35934 ft 423 kts 287°
2026-05-06 15:17 55.81126 70.32354 36184 ft 422 kts 287°
2026-05-06 15:17 55.81994 70.27375 36432 ft 421 kts 287°
2026-05-06 15:17 55.82850 70.22464 36664 ft 420 kts 287°
2026-05-06 15:18 55.83716 70.17500 36901 ft 419 kts 287°
2026-05-06 15:18 55.84579 70.12541 37128 ft 419 kts 286°
2026-05-06 15:18 55.85438 70.07589 37331 ft 418 kts 286°
2026-05-06 15:18 55.86296 70.02636 37549 ft 418 kts 286°
2026-05-06 15:19 55.86861 69.99362 37701 ft 417 kts 286°
2026-05-06 15:19 55.87711 69.94432 37912 ft 416 kts 286°
2026-05-06 15:19 55.88559 69.89495 37963 ft 418 kts 286°
2026-05-06 15:20 55.90262 69.79539 37974 ft 418 kts 286°
2026-05-06 15:20 55.91945 69.69647 37967 ft 415 kts 286°
2026-05-06 15:21 55.93599 69.59869 37969 ft 413 kts 286°
2026-05-06 15:21 55.95248 69.50069 37968 ft 411 kts 286°
2026-05-06 15:22 55.96887 69.40274 37970 ft 411 kts 285°
2026-05-06 15:22 55.98515 69.30485 37968 ft 411 kts 285°
2026-05-06 15:23 56.00130 69.20720 37969 ft 412 kts 285°
2026-05-06 15:23 56.01751 69.10869 37967 ft 413 kts 285°
2026-05-06 15:24 56.03361 69.01029 37959 ft 415 kts 285°
2026-05-06 15:24 56.04975 68.91102 37958 ft 416 kts 285°
2026-05-06 15:25 56.06581 68.81172 37964 ft 418 kts 285°
2026-05-06 15:25 56.08194 68.71135 37954 ft 419 kts 285°
2026-05-06 15:26 56.09800 68.61088 37956 ft 420 kts 285°
2026-05-06 15:26 56.11399 68.51024 37959 ft 420 kts 285°
2026-05-06 15:27 56.12990 68.40947 37952 ft 420 kts 285°
2026-05-06 15:27 56.14575 68.30853 37949 ft 419 kts 284°
2026-05-06 15:28 56.16137 68.20842 37955 ft 419 kts 284°
2026-05-06 15:28 56.17698 68.10775 37950 ft 418 kts 284°
2026-05-06 15:29 56.19250 68.00711 37945 ft 417 kts 284°
2026-05-06 15:29 56.20778 67.90737 37952 ft 416 kts 284°
2026-05-06 15:30 56.22308 67.80693 37946 ft 416 kts 284°
2026-05-06 15:30 56.23827 67.70655 37946 ft 415 kts 284°
2026-05-06 15:31 56.25326 67.60691 37948 ft 415 kts 284°
2026-05-06 15:31 56.26824 67.50675 37946 ft 415 kts 284°
2026-05-06 15:32 56.29061 67.35598 37943 ft 415 kts 284°
2026-05-06 15:32 56.30542 67.25534 37943 ft 415 kts 283°
2026-05-06 15:33 56.32008 67.15513 37941 ft 416 kts 283°
2026-05-06 15:33 56.33476 67.05411 37935 ft 417 kts 283°
2026-05-06 15:34 56.34942 66.95265 37937 ft 417 kts 283°
2026-05-06 15:34 56.36388 66.85187 37936 ft 417 kts 283°
2026-05-06 15:35 56.37837 66.75028 37939 ft 418 kts 283°
2026-05-06 15:35 56.39273 66.64896 37931 ft 418 kts 283°
2026-05-06 15:36 56.40709 66.54703 37929 ft 418 kts 283°
2026-05-06 15:36 56.41790 66.44374 37933 ft 417 kts 277°
2026-05-06 15:37 56.42583 66.34039 37930 ft 417 kts 277°
2026-05-06 15:37 56.43383 66.23630 37926 ft 417 kts 277°
2026-05-06 15:38 56.44192 66.13293 37929 ft 417 kts 277°
2026-05-06 15:38 56.45006 66.02881 37925 ft 417 kts 277°
2026-05-06 15:39 56.45811 65.92474 37929 ft 417 kts 277°
2026-05-06 15:39 56.46602 65.82145 37923 ft 417 kts 277°
2026-05-06 15:40 56.47384 65.71732 37927 ft 417 kts 277°
2026-05-06 15:40 56.48149 65.61331 37925 ft 417 kts 277°
2026-05-06 15:41 56.48904 65.50949 37931 ft 417 kts 277°
2026-05-06 15:41 56.49657 65.40525 37924 ft 417 kts 276°
2026-05-06 15:42 56.50394 65.30179 37921 ft 417 kts 276°
2026-05-06 15:42 56.51134 65.19738 37923 ft 417 kts 276°
2026-05-06 15:43 56.51866 65.09299 37923 ft 417 kts 276°
2026-05-06 15:43 56.52584 64.98928 37915 ft 417 kts 276°
2026-05-06 15:44 56.53300 64.88469 37916 ft 418 kts 276°
2026-05-06 15:44 56.54006 64.78006 37915 ft 418 kts 276°
2026-05-06 15:45 56.54701 64.67573 37916 ft 418 kts 276°
2026-05-06 15:45 56.55392 64.57075 37915 ft 418 kts 276°
2026-05-06 15:46 56.56070 64.46632 37914 ft 419 kts 276°
2026-05-06 15:46 56.56744 64.36113 37913 ft 419 kts 276°
2026-05-06 15:47 56.57405 64.25653 37911 ft 419 kts 276°
2026-05-06 15:47 56.58060 64.15142 37910 ft 419 kts 275°
2026-05-06 15:48 56.58706 64.04624 37906 ft 419 kts 275°
2026-05-06 15:48 56.59344 63.94099 37910 ft 419 kts 275°
2026-05-06 15:49 56.59974 63.83563 37909 ft 419 kts 275°
2026-05-06 15:49 56.60592 63.73084 37904 ft 419 kts 275°
2026-05-06 15:50 56.61205 63.62537 37901 ft 419 kts 275°
2026-05-06 15:50 56.61799 63.51985 37905 ft 419 kts 275°
2026-05-06 15:51 56.62380 63.41495 37896 ft 419 kts 275°
2026-05-06 15:51 56.62959 63.30916 37895 ft 419 kts 275°
2026-05-06 15:52 56.63533 63.20423 37892 ft 419 kts 275°
2026-05-06 15:52 56.64104 63.09876 37894 ft 419 kts 275°
2026-05-06 15:53 56.64666 62.99329 37889 ft 419 kts 274°
2026-05-06 15:53 56.65216 62.88817 37894 ft 419 kts 274°
2026-05-06 15:54 56.65761 62.78241 37889 ft 419 kts 274°
2026-05-06 15:54 56.66293 62.67730 37884 ft 419 kts 274°
2026-05-06 15:55 56.66821 62.57128 37883 ft 420 kts 274°
2026-05-06 15:55 56.67338 62.46556 37883 ft 420 kts 274°
2026-05-06 15:56 56.67845 62.36000 37876 ft 420 kts 274°
2026-05-06 15:56 56.68345 62.25414 37876 ft 420 kts 274°
2026-05-06 15:57 56.68832 62.14894 37878 ft 420 kts 274°
2026-05-06 15:57 56.69316 62.04256 37872 ft 420 kts 274°
2026-05-06 15:58 56.69789 61.93651 37875 ft 420 kts 274°
2026-05-06 15:58 56.70250 61.83107 37875 ft 420 kts 274°
2026-05-06 15:59 56.70706 61.72493 37873 ft 420 kts 273°
2026-05-06 15:59 56.71153 61.61849 37872 ft 420 kts 273°
2026-05-06 16:00 56.71588 61.51277 37870 ft 420 kts 273°
2026-05-06 16:00 56.72012 61.40776 37870 ft 420 kts 273°
2026-05-06 16:01 56.72433 61.30099 37858 ft 420 kts 273°
2026-05-06 16:01 56.72842 61.19532 37863 ft 420 kts 273°
2026-05-06 16:02 56.73242 61.08933 37861 ft 420 kts 273°
2026-05-06 16:02 56.73633 60.98333 37859 ft 420 kts 273°
2026-05-06 16:03 56.74018 60.87722 37857 ft 420 kts 273°
2026-05-06 16:03 56.74435 60.77114 37857 ft 420 kts 275°
2026-05-06 16:04 56.75168 60.66514 37857 ft 420 kts 277°
2026-05-06 16:04 56.75953 60.55990 37850 ft 420 kts 276°
2026-05-06 16:05 56.76702 60.45421 37858 ft 419 kts 276°
2026-05-06 16:05 56.77422 60.34890 37869 ft 419 kts 276°
2026-05-06 16:06 56.78129 60.24387 37873 ft 419 kts 276°
2026-05-06 16:06 56.78831 60.13847 37863 ft 419 kts 275°
2026-05-06 16:07 56.79381 60.05050 37873 ft 418 kts 275°
2026-05-06 16:07 56.80120 59.92733 37867 ft 419 kts 275°
2026-05-06 16:08 56.80744 59.82204 37862 ft 419 kts 275°
2026-05-06 16:08 56.81264 59.73375 37863 ft 419 kts 275°
2026-05-06 16:09 56.81880 59.62774 37865 ft 420 kts 275°
2026-05-06 16:09 56.82488 59.52157 37863 ft 420 kts 275°
2026-05-06 16:10 56.83086 59.41566 37863 ft 421 kts 275°
2026-05-06 16:10 56.83678 59.30911 37866 ft 421 kts 275°
2026-05-06 16:11 56.84257 59.20328 37856 ft 421 kts 275°
2026-05-06 16:11 56.84833 59.09652 37853 ft 422 kts 274°
2026-05-06 16:12 56.85234 58.98944 37851 ft 421 kts 271°
2026-05-06 16:12 56.85400 58.88301 37860 ft 421 kts 270°
2026-05-06 16:13 56.85549 58.77580 37855 ft 421 kts 270°
2026-05-06 16:13 56.85714 58.66859 37847 ft 422 kts 271°
2026-05-06 16:14 56.85883 58.56134 37853 ft 421 kts 271°
2026-05-06 16:14 56.86045 58.45486 37861 ft 421 kts 270°
2026-05-06 16:15 56.86199 58.34749 37847 ft 421 kts 270°
2026-05-06 16:15 56.86343 58.24078 37844 ft 421 kts 270°
2026-05-06 16:16 56.86479 58.13351 37842 ft 422 kts 270°
2026-05-06 16:16 56.86604 58.02663 37842 ft 422 kts 270°
2026-05-06 16:17 56.86721 57.91940 37838 ft 422 kts 270°
2026-05-06 16:17 56.86829 57.81207 37841 ft 421 kts 270°
2026-05-06 16:18 56.86927 57.70538 37837 ft 421 kts 270°
2026-05-06 16:18 56.87017 57.59815 37835 ft 422 kts 270°
2026-05-06 16:19 56.87096 57.49139 37833 ft 422 kts 270°
2026-05-06 16:19 56.87167 57.38406 37834 ft 422 kts 270°
2026-05-06 16:20 56.87230 57.27650 37829 ft 422 kts 270°
2026-05-06 16:20 56.87282 57.16912 37830 ft 422 kts 270°
2026-05-06 16:21 56.87326 57.06227 37822 ft 422 kts 269°
2026-05-06 16:21 56.87360 56.95453 37825 ft 423 kts 269°
2026-05-06 16:22 56.87385 56.84752 37824 ft 423 kts 269°
2026-05-06 16:22 56.87401 56.73981 37820 ft 423 kts 269°
2026-05-06 16:23 56.87408 56.63276 37822 ft 423 kts 269°
2026-05-06 16:23 56.87408 56.52511 37813 ft 423 kts 269°
2026-05-06 16:24 56.87407 56.41745 37818 ft 423 kts 270°
2026-05-06 16:24 56.87501 56.30968 37815 ft 423 kts 270°
2026-05-06 16:25 56.87605 56.20256 37819 ft 423 kts 270°
2026-05-06 16:25 56.87687 56.09482 37812 ft 423 kts 270°
2026-05-06 16:26 56.87757 55.98718 37814 ft 423 kts 270°
2026-05-06 16:26 56.87801 55.88023 37814 ft 423 kts 269°
2026-05-06 16:27 56.87687 55.77273 37809 ft 422 kts 268°
2026-05-06 16:27 56.87526 55.66536 37818 ft 422 kts 268°
2026-05-06 16:28 56.87370 55.55785 37810 ft 422 kts 268°
2026-05-06 16:28 56.87217 55.45142 37813 ft 422 kts 268°
2026-05-06 16:29 56.87057 55.34405 37819 ft 422 kts 268°
2026-05-06 16:29 56.86888 55.23690 37814 ft 422 kts 268°
2026-05-06 16:30 56.86741 55.14778 37816 ft 422 kts 268°
2026-05-06 16:30 56.86522 55.02237 37816 ft 422 kts 268°
2026-05-06 16:31 56.86325 54.91507 37811 ft 422 kts 268°
2026-05-06 16:31 56.86121 54.80843 37815 ft 422 kts 268°
2026-05-06 16:32 56.85907 54.70119 37815 ft 422 kts 267°
2026-05-06 16:32 56.85685 54.59396 37818 ft 422 kts 268°
2026-05-06 16:33 56.85541 54.48654 37817 ft 422 kts 268°
2026-05-06 16:34 56.85354 54.32555 37819 ft 422 kts 268°
2026-05-06 16:34 56.85205 54.21859 37816 ft 422 kts 268°
2026-05-06 16:35 56.85005 54.11118 37813 ft 422 kts 267°
2026-05-06 16:35 56.84766 54.00453 37820 ft 422 kts 267°
2026-05-06 16:36 56.84514 53.89727 37818 ft 422 kts 267°
2026-05-06 16:36 56.84258 53.79069 37817 ft 421 kts 267°
2026-05-06 16:37 56.83994 53.68351 37813 ft 421 kts 267°
2026-05-06 16:37 56.83722 53.57685 37818 ft 421 kts 267°
2026-05-06 16:38 56.83441 53.46987 37819 ft 421 kts 267°
2026-05-06 16:38 56.83315 53.36305 37825 ft 421 kts 270°
2026-05-06 16:39 56.83358 53.25599 37821 ft 421 kts 270°
2026-05-06 16:39 56.83366 53.14910 37820 ft 421 kts 269°
2026-05-06 16:40 56.83340 53.04212 37825 ft 421 kts 269°
2026-05-06 16:40 56.83302 52.93512 37820 ft 421 kts 269°
2026-05-06 16:41 56.83245 52.82818 37822 ft 421 kts 269°
2026-05-06 16:41 56.83175 52.72121 37826 ft 422 kts 269°
2026-05-06 16:42 56.83097 52.61353 37827 ft 422 kts 269°
2026-05-06 16:42 56.83013 52.50697 37822 ft 422 kts 269°
2026-05-06 16:43 56.82918 52.39976 37818 ft 422 kts 269°
2026-05-06 16:43 56.82817 52.29332 37825 ft 421 kts 269°
2026-05-06 16:44 56.82705 52.18637 37819 ft 420 kts 268°
2026-05-06 16:44 56.82780 52.07941 37823 ft 420 kts 271°
2026-05-06 16:45 56.82997 51.97264 37823 ft 420 kts 271°
2026-05-06 16:45 56.83177 51.86679 37817 ft 419 kts 270°
2026-05-06 16:46 56.83325 51.76037 37819 ft 419 kts 270°
2026-05-06 16:46 56.83460 51.65403 37817 ft 418 kts 270°
2026-05-06 16:47 56.83585 51.54786 37815 ft 418 kts 270°
2026-05-06 16:47 56.83335 51.44167 37822 ft 417 kts 265°
2026-05-06 16:48 56.82894 51.33664 37810 ft 417 kts 265°
2026-05-06 16:48 56.82449 51.23070 37815 ft 417 kts 265°
2026-05-06 16:49 56.82021 51.12557 37811 ft 417 kts 265°
2026-05-06 16:49 56.81590 51.01982 37815 ft 417 kts 265°
2026-05-06 16:50 56.81153 50.91412 37811 ft 417 kts 265°
2026-05-06 16:50 56.80710 50.80920 37811 ft 417 kts 265°
2026-05-06 16:51 56.80255 50.70353 37812 ft 417 kts 265°
2026-05-06 16:51 56.79791 50.59797 37805 ft 417 kts 265°
2026-05-06 16:52 56.79320 50.49286 37809 ft 417 kts 265°
2026-05-06 16:52 56.78838 50.38727 37809 ft 417 kts 264°
2026-05-06 16:53 56.78347 50.28171 37808 ft 417 kts 264°
2026-05-06 16:53 56.77850 50.17692 37807 ft 417 kts 264°
2026-05-06 16:54 56.77342 50.07147 37815 ft 417 kts 264°
2026-05-06 16:54 56.76826 49.96615 37811 ft 417 kts 264°
2026-05-06 16:55 56.76302 49.86083 37809 ft 417 kts 264°
2026-05-06 16:55 56.75850 49.75532 37809 ft 417 kts 266°
2026-05-06 16:56 56.75606 49.64967 37811 ft 417 kts 267°
2026-05-06 16:56 56.75366 49.54397 37814 ft 417 kts 267°
2026-05-06 16:57 56.75091 49.43833 37813 ft 417 kts 266°
2026-05-06 16:57 56.74797 49.33339 37814 ft 417 kts 266°
2026-05-06 16:58 56.74539 49.24491 37814 ft 417 kts 266°
2026-05-06 16:58 56.74225 49.13937 37811 ft 417 kts 266°
2026-05-06 16:59 56.73902 49.03393 37812 ft 417 kts 266°
2026-05-06 16:59 56.73570 48.92860 37817 ft 417 kts 266°
2026-05-06 17:00 56.73232 48.82386 37819 ft 417 kts 266°
2026-05-06 17:00 56.72882 48.71838 37815 ft 416 kts 266°
2026-05-06 17:01 56.72526 48.61304 37819 ft 416 kts 266°
2026-05-06 17:01 56.72159 48.50781 37821 ft 416 kts 266°
2026-05-06 17:02 56.71786 48.40340 37820 ft 416 kts 266°
2026-05-06 17:02 56.71404 48.29844 37822 ft 415 kts 266°
2026-05-06 17:03 56.71013 48.19348 37823 ft 415 kts 266°
2026-05-06 17:03 56.70615 48.08883 37831 ft 415 kts 266°
2026-05-06 17:04 56.70207 47.98389 37829 ft 414 kts 265°
2026-05-06 17:04 56.69792 47.87938 37832 ft 414 kts 265°
2026-05-06 17:05 56.69367 47.77481 37838 ft 414 kts 265°
2026-05-06 17:05 56.68935 47.67048 37842 ft 414 kts 265°
2026-05-06 17:06 56.68497 47.56679 37848 ft 414 kts 265°
2026-05-06 17:06 56.68047 47.46230 37841 ft 414 kts 265°
2026-05-06 17:07 56.67591 47.35798 37848 ft 413 kts 265°
2026-05-06 17:07 56.67357 47.25331 37845 ft 413 kts 272°
2026-05-06 17:08 56.67689 47.14916 37851 ft 413 kts 272°
2026-05-06 17:08 56.68016 47.04528 37849 ft 413 kts 272°
2026-05-06 17:09 56.68316 46.94052 37849 ft 414 kts 272°